Find Starlink 6357

NORAD ID: 56783 Int'l Des: 2023-078 Owner: SPXS Country: US Constellation: starlink operational
LEOCIRCULAR

当前视图

正在加载3D地球...

About Starlink 6357

Starlink 6357 (NORAD 56783) is a starlink constellation satellite (v1.5) launched May 31, 2023 by SPXS of US. It operates in LEO, CIRCULAR orbit with a mass of 305.00 kg.

关于 Starlink 6357

正在加载描述...

即将过境

Passes for default location (London). Set your location on the main map for personalized predictions.

高度历史

Loading altitude history...

两行轨道根数

1 56783U 23078S 26192.81067302 -.00000955 00000-0 -72221-4 0 9995
2 56783 70.0002 11.5863 0002596 264.5365 95.5498 14.98333464171764
Epoch: Jul 11, 2026 • Age: 8 hours

当前状态

高度 577.0 km
远地点 / 近地点 N/A
速度 7.57 km/s
星下点 -13.91°S, 24.54°E
发射日期 May 31, 2023
运行时间 3.1 years
类型 internet

技术详情

分类 Payload
质量 305.00 kg
干质量 290.00 kg
总质量 305.00 kg
长度 0.20 m
直径 2.80 m
跨度 9.00 m
形状 Box + pan
制造商 SPXS
平台类型 Starlink
阶段状态 In Orbit
所有者/国家 SPXS/US

Most Searched